Location: Ajisawe
(8.4333°N, 4.3833°E)
Time: 22:27:30
(UTC+00:00)

Cosmos 1151 Rocket - Pass Details

Date: 07 June 2020
Orbit: 593 x 615 km, 82.5° (Epoch: 10 July)

Event Time Altitude Azimuth Distance (km) Brightness Sun altitude
Rises 03:21:00 0° 358° (N) 2,870 6.8 -27.9°
Reaches altitude 10° 03:23:13 10° 359° (N) 1,964 6.0 -27.4°
Enters shadow 03:26:33 52° 9° (N) 764 3.6 -26.7°
